User: anonymous   Login
Location: Unspecified
(0.0000°N, 0.0000°E)
Time: 05:02:56
(UTC+00:00)
Language:

GOSAT - Orbit

View from above orbital plane
View from above orbital plane
View from above satellite
View from above satellite

Ground track
Ground track

The orbit data is extracted from the following two-line orbital elements,

1 33492U 09002A   18267.41999962 -.00000131 +00000-0 -14709-4 0  9997
2 33492 098.0106 020.2179 0000896 048.7040 311.4243 14.67576866517911
Epoch (UTC): 24 September 2018 10:04:47
Eccentricity: 0.0000896
inclination: 98.0106°
perigee height: 668 km
apogee height: 669 km
right ascension of ascending node: 20.2179°
argument of perigee: 48.7040°
revolutions per day: 14.67576866
mean anomaly at epoch: 311.4243°
orbit number at epoch: 51791

The dashed part of the orbit path shows where the satellite is in the earth's shadow,  

DLR